Location: Sungai Bunut
(2.6333°N, 113.7333°E)
Time: 11:42:23
(UTC+00:00)

A-11 Canister half - Pass Details

Date: 12 December 2023
Orbit: 1526 x 1682 km, 47.3° (Epoch: 04 March)

Event Time Altitude Azimuth Distance (km) Brightness Sun altitude
Exits shadow 20:26:19 16° 235° (SW) 3,303 10.4 -26.8°
Maximum altitude 20:27:15 16° 228° (SW) 3,283 10.5 -26.6°
Drops below altitude 10° 20:32:25 10° 194° (SSW) 3,709 11.1 -25.4°
Sets 20:37:12 0° 173° (S) 4,679 12.0 -24.3°
